Flag for Austria Weather past 2 weeks in Eisenstadt, Burgenland, Austria

Now
69 °F

Mild.


Feels Like: 69 °F
Forecast: 48 / 71 °F
Wind: 1 mph from West

Location: Eisenstadt

Current Time: Aug 21, 2014 at 7:07:25 PM

Latest Report: Aug 21, 2014 at 6:00 PM


Visibility: N/A

Pressure: 29.98 "Hg

Humidity: 52%

Dew point: 51 °F

Location of EisenstadtLocation

Historic Weather in Eisenstadt — Graph

°F

Eisenstadt temperature yesterday

Maximum temperature yesterday: 66 °F (at 5:00 PM)
Minimum temperature yesterday: 56 °F (at 11:00 PM)
Average temperature yesterday: 63 °F

Past Weeks' High & Low Weather Summary

 TemperatureHumidityPressure
High86 °F (Aug 9, 3:00 PM)97% (Aug 13, 5:00 AM)30.06 "Hg (Aug 13, 5:00 AM)
Low53 °F (Aug 18, 6:00 AM)41% (Aug 17, 4:00 PM)29.62 "Hg (Aug 13, 10:00 PM)
Average67 °F71%29.92 "Hg
* Reported Aug 6 5:00 PM — Aug 21 5:00 PM, Eisenstadt, Weather by CustomWeather, © 2014

Note: Actual official high and low records may vary slightly from our data, if they occured in-between our weather recording intervals... More about our weather records

Advertising

Eisenstadt weather history for previous 24 hours

 ConditionsComfort  
Time TempWeatherWind HumidityBarometerVisibility
5:00 PM
Aug 21
70 °FPartly sunny.2 mph53%29.99 "Hg9 mi
4:00 PM68 °FMild.2 mph55%30.00 "HgN/A
3:00 PM70 °FMild.3 mph52%30.00 "HgN/A
2:00 PM69 °FPartly sunny.2 mph53%30.01 "Hg9 mi
1:00 PM68 °FMild.2 mph55%30.01 "HgN/A
12:00 PM67 °FMild.2 mph64%30.01 "HgN/A
11:00 AM65 °FScattered clouds.3 mph68%30.02 "Hg9 mi
10:00 AM60 °FCool.2 mph80%30.01 "HgN/A
9:00 AM58 °FCool.3 mph86%30.00 "HgN/A
8:00 AM55 °FPartly sunny.1 mph91%29.98 "Hg9 mi
6:00 AM55 °FOvercast.2 mph94%30.00 "Hg6 mi
5:00 AM55 °FOvercast.2 mph92%29.97 "Hg6 mi
4:00 AM55 °FOvercast.5 mph92%29.97 "Hg6 mi
3:00 AM55 °FCool.6 mph88%29.98 "HgN/A
2:00 AM55 °FCool.5 mph87%29.98 "HgN/A
1:00 AM55 °FCool.5 mph83%30.00 "HgN/A
12:00 AM54 °FFog.5 mph91%30.01 "HgN/A
11:00 PM
Aug 20
56 °FOvercast.6 mph84%30.01 "Hg6 mi
10:00 PM57 °FFog.6 mph86%30.00 "HgN/A
9:00 PM59 °FCool.6 mph81%30.00 "HgN/A
8:00 PM62 °FOvercast.3 mph68%29.97 "Hg9 mi
7:00 PM63 °FPartly sunny.5 mph66%29.98 "Hg12 mi
Weather by CustomWeather, © 2014

See weather overviewHow to use our weather pages